Simultaneous Nadir Overpasses (SNOs) Predictions

Prediction of SNOs between LANDSAT-8 and METOP-B Satellite Orbit:

Table of predicted SNOs for the next 14.0 days since TLE Epoch: 12/16/2017
Index Date (LANDSAT-8) Time (LANDSAT-8) Lat,Lon (LANDSAT-8) SZA (LANDSAT-8 ) Date (METOP-B) Time (METOP-B) Lat,Lon (METOP-B) SZA (METOP-B ) Distance(km) Time Diff (sec)
1 12/16/2017 05:15:37 81.15, 141.27 106.52 12/16/2017 05:16:44 81.15, 141.24 106.54 0.62 67
2 12/18/2017 23:11:00 81.12,-127.96 106.51 12/18/2017 23:09:47 81.11,-128.09 106.47 2.28 73
3 12/19/2017 00:00:26 -81.14, 39.99 73.45 12/19/2017 00:00:26 -81.14, 40.00 73.45 0.33 0
4 12/19/2017 00:49:52 81.15,-152.28 106.57 12/19/2017 00:51:06 81.15,-152.45 106.59 2.79 74
5 12/21/2017 18:45:16 81.12, -61.55 106.51 12/21/2017 18:44:09 81.12, -61.41 106.49 2.36 67
6 12/21/2017 19:34:42 -81.14, 106.43 73.45 12/21/2017 19:34:49 -81.14, 106.34 73.46 1.58 7
7 12/24/2017 14:19:32 81.12, 4.83 106.43 12/24/2017 14:18:32 81.12, 4.86 106.41 0.62 60
8 12/24/2017 15:08:58 -81.14, 172.83 73.52 12/24/2017 15:09:12 -81.14, 172.66 73.54 2.96 14
9 12/27/2017 09:53:48 81.11, 71.17 106.29 12/27/2017 09:52:55 81.11, 71.12 106.27 0.91 53




NCC Satellite Simultaneous Nadir Overpasses (SNOs) Prediction Service
